Tracking 27420 objects as of 28-May-2023
HD Live streaming from Space Station
objects crossing your sky now

STARLINK-1916

Track STARLINK-1916 now!
10-day predictions
STARLINK-1916 is classified as:


NORAD ID: 46766
Int'l Code: 2020-074AD
Perigee: 553.5 km
Apogee: 555.2 km
Inclination: 53.1 °
Period: 95.6 minutes
Semi major axis: 6925 km
RCS: Unknown
Launch date: October 24, 2020
Source: United States (US)
Launch site: AIR FORCE EASTERN TEST RANGE (AFETR)
Your satellite tracking list
Your tracking list is empty




NASA's NSSDC Master Catalog

Two Line Element Set (TLE):
1 46766U 20074AD  23148.40396459  .00004345  00000-0  31037-3 0  9993
2 46766  53.0529 218.9003 0001226  94.2813 265.8316 15.06400215143021
Source of the keplerian elements: AFSPC